Location: Unspecified
(0.0000°N, 0.0000°E)
Time: 09:35:59
(UTC-07:00)

OTV 5 (USA 277) - Visible Passes

Search period start: 22 July 2019 00:00
Search period end: 01 August 2019 00:00
Orbit: 299 x 335 km, 54.5° (Epoch: 13 July)

Date Brightness Start Highest point End Pass type
(mag) Time Alt. Az. Time Alt. Az. Time Alt. Az.
22 Jul ? 11:50:24 10° WNW 11:52:49 27° WSW 11:55:14 10° S visible
24 Jul ? 22:05:58 12° S 22:07:56 28° ESE 22:10:14 10° ENE visible
25 Jul ? 22:20:54 18° WSW 22:22:25 38° WNW 22:24:53 10° NNE visible
27 Jul ? 21:19:44 12° NE 21:19:44 12° NE 21:19:56 10° NE visible
